Weather History for PADQ - January, 2013

Change the Weather History Date:

Friday, January 25, 2013

  Actual Average Record
Temperature  
Mean Temperature 30 °F 30 °F  
Max Temperature 35 °F 35 °F 43 °F (1981)
Min Temperature 25 °F 26 °F -2 °F (1973)
Degree Days  
Heating Degree Days 35 35  
Month to date heating degree days 761 863  
Since 1 July heating degree days 4800 4704  
Cooling Degree Days 0    
Month to date cooling degree days 0  
Year to date cooling degree days 0  
Moisture  
Dew Point 21 °F    
Average Humidity 0    
Maximum Humidity 0    
Minimum Humidity 0    
Precipitation  
Precipitation 0.00 in 0.25 in 1.39 in (1984)
Month to date precipitation 8.11 6.84  
Year to date precipitation 8.11 6.84  
Snow  
Snow 0.00 in 0.50 in 11.80 in (2007)
Month to date snowfall 3.6 10.2  
Since 1 July snowfall 20.0 31.5  
Snow Depth 0.00 in    
Sea Level Pressure  
Sea Level Pressure 29.53 in    
Wind  
Wind Speed 10 mph (WNW)    
Max Wind Speed 25 mph    
Max Gust Speed 33 mph    
Visibility 10 miles    
Events      
T = Trace of Precipitation, MM = Missing Value Source: NWS Daily Summary

Daily Weather History Graph

Daily Weather History Graph

Search for Another Location

Airport or City:

Trip Planner

Search our weather history database for the weather conditions in past years. The results will help you decide how hot, cold, wet, or windy it might be!

Date:

Astronomy

Jan. 25, 2013 Rise Set
Actual Time 9:25 AM AKST 5:20 PM AKST
Civil Twilight 8:40 AM AKST 6:05 PM AKST
Nautical Twilight 7:51 AM AKST 6:53 PM AKST
Astronomical Twilight 7:05 AM AKST 7:39 PM AKST
Moon 4:29 PM AKST (1/25) 8:12 AM AKST (1/25)
Length of Visible Light 9h 25m
Length of Day
7h 55m
Waxing Gibbous, 98% of the Moon is Illuminated
Jan 25
Waxing Gibbous
Jan 26
Full
Feb 3
Last Quarter
Feb 9
New
Feb 17
First Quarter

Hourly Weather History & Observations

Time (AKST) Temp. Windchill Dew Point Humidity Pressure Visibility Wind Dir Wind Speed Gust Speed Precip Events Conditions
12:53 AM 32.0 °F 27.5 °F 28.9 °F 88% 29.51 in 10.0 mi West 4.6 mph - N/A   Partly Cloudy
1:53 AM 32.0 °F 25.6 °F 30.0 °F 92% 29.51 in 10.0 mi WNW 6.9 mph - N/A   Partly Cloudy
3:53 AM 30.0 °F 26.5 °F 28.0 °F 92% 29.52 in 10.0 mi SW 3.5 mph - N/A   Clear
4:53 AM 28.9 °F 23.9 °F 28.0 °F 96% 29.50 in 10.0 mi NW 4.6 mph - N/A   Partly Cloudy
5:53 AM 28.9 °F 25.2 °F 28.0 °F 96% 29.49 in 10.0 mi WNW 3.5 mph - N/A   Partly Cloudy
6:53 AM 30.9 °F 27.5 °F 27.0 °F 85% 29.49 in 10.0 mi Variable 3.5 mph - N/A   Partly Cloudy
7:53 AM 30.0 °F 21.7 °F 26.1 °F 85% 29.49 in 10.0 mi West 9.2 mph - N/A   Partly Cloudy
8:53 AM 33.1 °F 24.4 °F 27.0 °F 78% 29.48 in 10.0 mi NW 11.5 mph - N/A   Clear
9:53 AM 33.1 °F 24.4 °F 26.1 °F 75% 29.49 in 10.0 mi NW 11.5 mph - N/A   Partly Cloudy
10:53 AM 33.1 °F 26.9 °F 27.0 °F 78% 29.49 in 10.0 mi WNW 6.9 mph - N/A   Partly Cloudy
11:53 AM 33.1 °F 27.7 °F 24.1 °F 70% 29.50 in 10.0 mi NNW 5.8 mph - N/A   Scattered Clouds
12:53 PM 32.0 °F 24.2 °F 24.1 °F 73% 29.50 in 10.0 mi WNW 9.2 mph 19.6 mph N/A   Mostly Cloudy
1:53 PM 32.0 °F 19.5 °F 21.0 °F 64% 29.51 in 10.0 mi WNW 21.9 mph 26.5 mph N/A   Mostly Cloudy
2:53 PM 33.1 °F 20.3 °F 19.0 °F 56% 29.51 in 10.0 mi West 24.2 mph 28.8 mph N/A   Mostly Cloudy
3:53 PM 32.0 °F 21.2 °F 19.0 °F 59% 29.51 in 10.0 mi WNW 16.1 mph 25.3 mph N/A   Mostly Cloudy
4:53 PM 30.0 °F 18.7 °F 17.1 °F 59% 29.53 in 10.0 mi West 16.1 mph 23.0 mph N/A   Scattered Clouds
5:53 PM 28.9 °F 17.3 °F 14.0 °F 54% 29.54 in 10.0 mi WNW 16.1 mph 25.3 mph N/A   Scattered Clouds
6:53 PM 27.0 °F 17.3 °F 12.0 °F 53% 29.57 in 10.0 mi WNW 10.4 mph - N/A   Scattered Clouds
7:53 PM 26.1 °F 16.2 °F 10.0 °F 51% 29.57 in 10.0 mi North 10.4 mph - N/A   Scattered Clouds
8:53 PM 26.1 °F 14.0 °F 9.0 °F 49% 29.59 in 10.0 mi WNW 15.0 mph - N/A   Scattered Clouds
9:53 PM 26.1 °F 14.5 °F 9.0 °F 49% 29.60 in 10.0 mi NW 13.8 mph - N/A   Scattered Clouds
10:53 PM 25.0 °F 15.5 °F 8.1 °F 49% 29.61 in 10.0 mi NNW 9.2 mph - N/A   Scattered Clouds
11:53 PM 25.0 °F 18.1 °F 7.0 °F 46% 29.64 in 10.0 mi NNW 5.8 mph - N/A   Scattered Clouds